ASA1140 KSEA-KSFO

Flight info

Callsign ASA1140
Flight time N/A
Altitude 38000
Route HAROB6 ERAVE Q1 ETCHY MLBEC BDEGA4
Aircraft B738/M-SDE2E3FGHIRWXY/LB1

Departure

Time 2026-05-01 14:34
Airport Seattle–Tacoma International Airport (KSEA)

Arrival

Time N/A
Airport San Francisco International Airport (KSFO)
Time Latitude Longitude Altitude Speed Heading
2026-05-01 13:53 47.44966 -122.30287 405 ft 0 kts 223°
2026-05-01 14:27 47.44966 -122.30289 406 ft 1 kts 234°
2026-05-01 14:28 47.44999 -122.30354 408 ft 13 kts 313°
2026-05-01 14:28 47.45043 -122.30466 407 ft 13 kts 274°
2026-05-01 14:28 47.45039 -122.30596 412 ft 13 kts 250°
2026-05-01 14:28 47.44956 -122.30628 409 ft 14 kts 179°
2026-05-01 14:29 47.44853 -122.30627 405 ft 16 kts 181°
2026-05-01 14:29 47.44741 -122.30629 401 ft 16 kts 180°
2026-05-01 14:30 47.44373 -122.30633 393 ft 18 kts 181°
2026-05-01 14:30 47.44245 -122.30635 389 ft 19 kts 180°
2026-05-01 14:30 47.44107 -122.30635 385 ft 20 kts 180°
2026-05-01 14:31 47.43838 -122.30637 378 ft 19 kts 180°
2026-05-01 14:31 47.43700 -122.30637 373 ft 21 kts 180°
2026-05-01 14:31 47.43563 -122.30573 370 ft 21 kts 160°
2026-05-01 14:31 47.43424 -122.30560 367 ft 20 kts 179°
2026-05-01 14:32 47.43297 -122.30560 362 ft 18 kts 181°
2026-05-01 14:32 47.43185 -122.30628 362 ft 18 kts 238°
2026-05-01 14:32 47.43180 -122.30798 358 ft 13 kts 315°
2026-05-01 14:32 47.43198 -122.30804 358 ft 0 kts 358°
2026-05-01 14:33 47.43229 -122.30804 363 ft 25 kts
2026-05-01 14:33 47.43660 -122.30801 369 ft 97 kts
2026-05-01 14:33 47.44539 -122.30793 402 ft 153 kts
2026-05-01 14:33 47.45642 -122.30792 956 ft 160 kts
2026-05-01 14:34 47.46788 -122.30793 1526 ft 175 kts
2026-05-01 14:34 47.48104 -122.30763 1816 ft 203 kts
2026-05-01 14:34 47.49600 -122.30716 2027 ft 227 kts
2026-05-01 14:34 47.51273 -122.30752 2269 ft 252 kts 358°
2026-05-01 14:35 47.53052 -122.30857 2931 ft 259 kts 358°
2026-05-01 14:35 47.54862 -122.30990 3717 ft 262 kts 353°
2026-05-01 14:35 47.56556 -122.31963 4456 ft 266 kts 326°
2026-05-01 14:35 47.58082 -122.33531 5226 ft 269 kts 325°
2026-05-01 14:36 47.59623 -122.35143 5951 ft 273 kts 321°
2026-05-01 14:36 47.60796 -122.37349 6679 ft 277 kts 292°
2026-05-01 14:36 47.61281 -122.40114 7487 ft 279 kts 280°
2026-05-01 14:36 47.61607 -122.42973 8242 ft 284 kts 278°
2026-05-01 14:37 47.61678 -122.45901 8977 ft 288 kts 257°
2026-05-01 14:37 47.60873 -122.48602 9665 ft 289 kts 232°
2026-05-01 14:37 47.59541 -122.50820 10398 ft 292 kts 226°
2026-05-01 14:37 47.58061 -122.53067 10647 ft 316 kts 225°
2026-05-01 14:38 47.56462 -122.55460 10913 ft 337 kts 225°
2026-05-01 14:38 47.54789 -122.57967 11497 ft 346 kts 225°
2026-05-01 14:38 47.53097 -122.60515 12301 ft 347 kts 225°
2026-05-01 14:38 47.51411 -122.63065 13193 ft 347 kts 226°
2026-05-01 14:39 47.49720 -122.65633 13964 ft 351 kts 225°
2026-05-01 14:39 47.48010 -122.68233 14717 ft 355 kts 225°
2026-05-01 14:39 47.46279 -122.70867 15464 ft 359 kts 225°
2026-05-01 14:39 47.44530 -122.73528 16217 ft 362 kts 225°
2026-05-01 14:40 47.42765 -122.76211 16952 ft 366 kts 225°
2026-05-01 14:40 47.40985 -122.78916 17648 ft 370 kts 225°
2026-05-01 14:40 47.39182 -122.81652 18353 ft 373 kts 225°
2026-05-01 14:40 47.37360 -122.84413 19008 ft 377 kts 225°
2026-05-01 14:41 47.36141 -122.86259 19436 ft 380 kts 225°
2026-05-01 14:41 47.34288 -122.89064 20069 ft 384 kts 225°
2026-05-01 14:41 47.32418 -122.91891 20684 ft 387 kts 225°
2026-05-01 14:41 47.30529 -122.94745 21271 ft 391 kts 226°
2026-05-01 14:42 47.28621 -122.97624 21831 ft 394 kts 226°
2026-05-01 14:42 47.26695 -123.00527 22386 ft 398 kts 226°
2026-05-01 14:42 47.24750 -123.03452 22920 ft 401 kts 225°
2026-05-01 14:42 47.22671 -123.06217 23427 ft 405 kts 219°
2026-05-01 14:43 47.20409 -123.08725 23936 ft 409 kts 217°
2026-05-01 14:43 47.18080 -123.11156 24421 ft 412 kts 216°
2026-05-01 14:43 47.15728 -123.13597 24895 ft 415 kts 216°
2026-05-01 14:43 47.13373 -123.16073 25389 ft 417 kts 217°
2026-05-01 14:44 47.11017 -123.18585 25846 ft 420 kts 217°
2026-05-01 14:44 47.06277 -123.23705 26718 ft 425 kts 218°
2026-05-01 14:44 47.03893 -123.26288 27143 ft 427 kts 218°
2026-05-01 14:45 47.01496 -123.28882 27549 ft 429 kts 218°
2026-05-01 14:45 46.96658 -123.34108 28304 ft 434 kts 218°
2026-05-01 14:45 46.94219 -123.36735 28676 ft 436 kts 218°
2026-05-01 14:46 46.91608 -123.39022 29003 ft 442 kts 204°
2026-05-01 14:46 46.85497 -123.40254 29715 ft 452 kts 181°
2026-05-01 14:46 46.82342 -123.40129 30032 ft 455 kts 181°
2026-05-01 14:47 46.79167 -123.39969 30292 ft 458 kts 181°
2026-05-01 14:47 46.75978 -123.39809 30633 ft 458 kts 181°
2026-05-01 14:47 46.72796 -123.39664 31092 ft 456 kts 181°
2026-05-01 14:48 46.66478 -123.39423 31908 ft 454 kts 181°
2026-05-01 14:48 46.63320 -123.39319 32255 ft 454 kts 181°
2026-05-01 14:48 46.57026 -123.39123 33032 ft 451 kts 181°
2026-05-01 14:49 46.50764 -123.38930 33754 ft 450 kts 181°
2026-05-01 14:49 46.44506 -123.38738 34406 ft 449 kts 181°
2026-05-01 14:50 46.39329 -123.38578 34972 ft 447 kts 181°
2026-05-01 14:50 46.32054 -123.38353 35682 ft 446 kts 181°
2026-05-01 14:51 46.28955 -123.38257 36001 ft 445 kts 182°
2026-05-01 14:51 46.22767 -123.38066 36537 ft 445 kts 182°
2026-05-01 14:52 46.16579 -123.37875 37138 ft 442 kts 182°
2026-05-01 14:52 46.13532 -123.37780 37466 ft 440 kts 182°
2026-05-01 14:52 46.09239 -123.37647 37902 ft 437 kts 182°
2026-05-01 14:53 46.06200 -123.37554 38119 ft 437 kts 182°
2026-05-01 14:53 46.00073 -123.37369 38108 ft 441 kts 182°
2026-05-01 14:54 45.93969 -123.37182 38098 ft 436 kts 183°
2026-05-01 14:54 45.87915 -123.36996 38108 ft 434 kts 183°
2026-05-01 14:55 45.81879 -123.36813 38102 ft 433 kts 183°
2026-05-01 14:55 45.75853 -123.36630 38111 ft 433 kts 183°
2026-05-01 14:56 45.69833 -123.36449 38107 ft 433 kts 183°
2026-05-01 14:56 45.63793 -123.36267 38106 ft 435 kts 183°
2026-05-01 14:57 45.57735 -123.36086 38103 ft 436 kts 183°
2026-05-01 14:57 45.48605 -123.35812 38103 ft 439 kts 183°
2026-05-01 14:58 45.42486 -123.35629 38102 ft 441 kts 183°
2026-05-01 14:58 45.36347 -123.35444 38100 ft 442 kts 183°
2026-05-01 14:59 45.30194 -123.35260 38100 ft 442 kts 183°
2026-05-01 14:59 45.24079 -123.35077 38106 ft 442 kts 183°
2026-05-01 15:00 45.14800 -123.34801 38101 ft 443 kts 183°
2026-05-01 15:01 45.08649 -123.34619 38096 ft 442 kts 183°
2026-05-01 15:01 45.02532 -123.34437 38104 ft 442 kts 184°
2026-05-01 15:02 44.96382 -123.34256 38102 ft 442 kts 184°
2026-05-01 15:02 44.90245 -123.34075 38099 ft 441 kts 184°
2026-05-01 15:03 44.84108 -123.33895 38111 ft 441 kts 184°
2026-05-01 15:03 44.77974 -123.33715 38111 ft 441 kts 184°
2026-05-01 15:04 44.71848 -123.33535 38122 ft 440 kts 184°
2026-05-01 15:04 44.65718 -123.33357 38121 ft 440 kts 184°
2026-05-01 15:05 44.59585 -123.33179 38121 ft 441 kts 184°
2026-05-01 15:05 44.53451 -123.33000 38119 ft 441 kts 184°
2026-05-01 15:06 44.47312 -123.32808 38122 ft 441 kts 184°
2026-05-01 15:06 44.41179 -123.32552 38149 ft 437 kts 182°
2026-05-01 15:07 44.35220 -123.32293 38128 ft 423 kts 183°
2026-05-01 15:07 44.29326 -123.32056 38154 ft 424 kts 183°
2026-05-01 15:08 44.23408 -123.31819 38134 ft 426 kts 183°
2026-05-01 15:08 44.17468 -123.31579 38131 ft 428 kts 183°
2026-05-01 15:09 44.11517 -123.31342 38131 ft 429 kts 183°
2026-05-01 15:09 44.05550 -123.31105 38128 ft 429 kts 183°
2026-05-01 15:10 43.99580 -123.30868 38129 ft 429 kts 183°
2026-05-01 15:10 43.90622 -123.30511 38128 ft 429 kts 183°
2026-05-01 15:11 43.81670 -123.30158 38128 ft 429 kts 183°
2026-05-01 15:12 43.75697 -123.29923 38130 ft 429 kts 184°
2026-05-01 15:12 43.66738 -123.29571 38129 ft 429 kts 184°
2026-05-01 15:14 43.51817 -123.28984 38126 ft 429 kts 184°
2026-05-01 15:14 43.42859 -123.28636 38146 ft 429 kts 184°
2026-05-01 15:15 43.30912 -123.28172 38145 ft 430 kts 184°
2026-05-01 15:16 43.18937 -123.27708 38133 ft 431 kts 184°
2026-05-01 15:18 43.03897 -123.27129 38133 ft 433 kts 184°
2026-05-01 15:19 42.91820 -123.26665 38124 ft 435 kts 184°
2026-05-01 15:19 42.82740 -123.26317 38112 ft 435 kts 184°
2026-05-01 15:20 42.73648 -123.25970 38108 ft 436 kts 184°
2026-05-01 15:21 42.67585 -123.25739 38104 ft 436 kts 184°
2026-05-01 15:21 42.61524 -123.25509 38104 ft 436 kts 184°
2026-05-01 15:22 42.53453 -123.25202 38108 ft 435 kts 185°
2026-05-01 15:22 42.49164 -123.25040 38108 ft 435 kts 185°
2026-05-01 15:23 42.43112 -123.24814 38114 ft 435 kts 185°
2026-05-01 15:23 42.37070 -123.24596 38105 ft 435 kts 185°
2026-05-01 15:24 42.31020 -123.24379 38113 ft 434 kts 185°
2026-05-01 15:24 42.24982 -123.24161 38105 ft 435 kts 185°
2026-05-01 15:25 42.18934 -123.23942 38104 ft 435 kts 185°
2026-05-01 15:25 42.12881 -123.23724 38095 ft 435 kts 185°
2026-05-01 15:26 42.06833 -123.23505 38101 ft 435 kts 185°
2026-05-01 15:26 42.00786 -123.23287 38106 ft 435 kts 185°
2026-05-01 15:27 41.94736 -123.23071 38094 ft 435 kts 185°
2026-05-01 15:28 41.85640 -123.22747 38110 ft 436 kts 185°
2026-05-01 15:28 41.79573 -123.22529 38107 ft 437 kts 185°
2026-05-01 15:29 41.70450 -123.22204 38110 ft 438 kts 185°
2026-05-01 15:30 41.58246 -123.21771 38117 ft 439 kts 185°
2026-05-01 15:31 41.39886 -123.21122 38111 ft 440 kts 185°
2026-05-01 15:32 41.27632 -123.20731 38115 ft 440 kts 186°
2026-05-01 15:34 41.09235 -123.20289 38103 ft 440 kts 186°